Location: Grasslands National Park East Block
(49.0708°N, 106.5295°W)
Time: 18:40:59
(UTC-06:00)

Vanguard 1 Rocket - Pass Details

Date: 24 September 2019
Orbit: 650 x 4226 km, 34.3° (Epoch: 17 October)

Event Time Altitude Azimuth Distance (km) Brightness Sun altitude
Rises 15:56:10 0° 208° (SSW) 8,358 13.3 27.3°
Reaches altitude 10° 16:03:11 10° 199° (SSW) 7,421 13.0 26.4°
Maximum altitude 16:23:04 31° 149° (SSE) 5,277 11.5 23.7°
Drops below altitude 10° 16:37:58 10° 97° (E) 5,625 11.0 21.6°
Sets 16:42:12 0° 87° (E) 6,175 11.1 21.0°
